User: anonymous   Login
Location: Newark
(39.0622°N, 106.5590°E)
Time: 21:56:50
(UTC+00:00)
Language:

DIWATA 2B (PO-101) - Orbit

View from above orbital plane
View from above orbital plane
View from above satellite
View from above satellite

Ground track
Ground track

The orbit data is extracted from the following two-line orbital elements,

1 43678U 18084H   20052.41532287  .00000008  00000-0  64689-5 0  9996
2 43678  97.8688 170.9404 0009263 197.2536 162.8385 14.91604870 71577
Epoch (UTC): 21 February 2020 09:58:03
Eccentricity: 0.0009263
inclination: 97.8688°
perigee height: 586 km
apogee height: 599 km
right ascension of ascending node: 170.9404°
argument of perigee: 197.2536°
revolutions per day: 14.91604870
mean anomaly at epoch: 162.8385°
orbit number at epoch: 7157

The dashed part of the orbit path shows where the satellite is in the earth's shadow,  

DLR